Terminal Aerodrome Forecast
Issued by NWS

Home | Current Version | Previous Version | Text Only | Print | Product List | Glossary On
Versions: 1 2 3 4 5 6 7 8 9 10 11 12 13 14 15 16 17 18 19 20 21
000
FTUS41 KGYX 251120
TAFPSM
TAF
KPSM 251120Z 2512/2612 04008KT 2SM -SN OVC015
      TEMPO 2513/2516 1/2SM SNPL OVC004
     FM251600 05008KT 1SM -RAPL OVC007
     FM251900 09008KT 2SM -RA OVC007
     FM252300 14006KT P6SM OVC003
     FM260600 25007KT P6SM SCT040=

USA.gov is the U.S. government's official web portal to all federal, state and local government web resources and services.